273  
ASUS41 KBOX 071110  
RWRBOX  
 
REGIONAL WEATHER ROUNDUP  
NATIONAL WEATHER SERVICE BOSTON/NORTON MA  
700 AM EDT THU JUL 07 2022  
 
NOTE: "FAIR" INDICATES FEW OR NO CLOUDS BELOW 12,000 FEET WITH NO  
SIGNIFICANT WEATHER AND/OR S TO VISIBILITY
.  
 
MAZALL-071200-  
EASTERN MASSACHUSETTS  
 
CITY SKY/WX TMP DP RH WIND PRES REMARKS
 
BOSTON MOSUNNY 68 57 68 N5 30.05R  
BEVERLY MOSUNNY 64 58 80 N3 30.05R  
LAWRENCE LGT RAIN 65 58 78 CALM 30.07R  
BEDFORD PTSUNNY 64 59 83 CALM 30.04R  
BLUE HILL NOT AVBL  
NORWOOD MOSUNNY 60 57 89 CALM 30.04R  
MARSHFIELD SUNNY 66 59 77 CALM 30.04R  
PLYMOUTH SUNNY 65 61 87 CALM 30.05R  
TAUNTON SUNNY 63 58 83 CALM 30.04R  
NEW BEDFORD SUNNY 65 60 84 CALM 30.04R  

 
 
MAZALL-071200-  
CAPE COD AND THE ISLANDS  
 
CITY SKY/WX TMP DP RH WIND PRES REMARKS
 
FALMOUTH NOT AVBL  
HYANNIS SUNNY 66 62 87 CALM 30.04R  
CHATHAM SUNNY 69 63 81 CALM 30.05R  
PROVINCETOWN PTSUNNY 65 63 93 S3 30.05R  
NANTUCKET SUNNY 68 61 78 E3 30.05R  
MARTHAS VNYRD SUNNY 65 62 90 CALM 30.05R  

 
 
MAZALL-071200-  
CENTRAL AND WESTERN MASSACHUSETTS  
 
CITY SKY/WX TMP DP RH WIND PRES REMARKS
 
WORCESTER SUNNY 65 53 65 NE5 30.07R  
FITCHBURG CLOUDY 60 54 80 CALM 30.06R  
ORANGE PTSUNNY 57 55 93 CALM 30.07R  
SPRINGFIELD MOSUNNY 60 60 99 CALM 30.05R  
WESTFIELD SUNNY 61 56 83 SE5 30.06R  
NORTH ADAMS SUNNY 58 54 86 CALM 30.07R  
PITTSFIELD MOSUNNY 58 56 93 CALM 30.06R  

 
 
RIZALL-071200-  
RHODE ISLAND  
 
CITY SKY/WX TMP DP RH WIND PRES REMARKS
 
PROVIDENCE MOSUNNY 67 58 72 N6 30.05R  
NEWPORT SUNNY 67 64 90 CALM 30.04R  
BLOCK ISLAND SUNNY 67 63 87 E6 30.04R  
SMITHFIELD SUNNY 65 59 81 NE5 30.06R  
WESTERLY MOSUNNY 65 61 87 CALM 30.04R  

 
 
CTZALL-071200-  
CONNECTICUT  
 
CITY SKY/WX TMP DP RH WIND PRES REMARKS
 
BRADLEY INTL MOSUNNY 64 57 78 N7 30.05R  
HARTFORD SUNNY 66 58 75 N6 30.04R  
BRIDGEPORT MOSUNNY 69 59 70 N9 30.02R  
DANBURY MOSUNNY 68 58 70 E3 30.05R  
GROTON MOSUNNY 68 61 78 N5 30.02R  
NEW HAVEN CLOUDY 71 62 73 NE6 30.02R  
CHESTER FAIR 68 61 77 CALM 30.04S  
MERIDEN MOSUNNY 67 56 67 N3 30.04R  
WILLIMANTIC SUNNY 60 58 92 CALM 30.06R  
OXFORD MOSUNNY 65 57 75 E6 30.05R  

 
 
MEZ002-015-021-024-NHZ003-005-008-011-012-014-VTZ005-008-071200-  
NORTHERN NEW ENGLAND  
 
CITY SKY/WX TMP DP RH WIND PRES REMARKS
 
PORTLAND ME MOSUNNY 60 56 86 W3 30.05R  
BANGOR ME MOSUNNY 57 52 83 SW3 30.05R  
CONCORD NH MOSUNNY 55 54 96 CALM 30.06R  
MANCHESTER NH PTSUNNY 64 56 75 NW5 30.05R  
NASHUA NH CLOUDY 61 61 100 NW5 30.07R  
PORTSMOUTH NH PTSUNNY 63 56 77 NW3 30.05R  
JAFFREY NH CLOUDY 57 54 89 CALM 30.08R  
KEENE NH CLOUDY 56 56 100 CALM 30.08R  
BURLINGTON VT PTSUNNY 57 54 89 CALM 30.06R  
MT. WASHINGTON MOSUNNY 41 30 65 N13 N/A  

 
 
NYZ052-076-071200-  
EASTERN NEW YORK  
 
CITY SKY/WX TMP DP RH WIND PRES REMARKS
 
ALBANY MOSUNNY 64 59 83 CALM 30.05R  
NEW YORK CITY PTSUNNY 70 63 78 NE9 30.00R  

 
 
ANZALL-071200-  
MARINE OBSERVATIONS  
 
STATION/POSITION TIME TEMP WIND PRES VSBY WAVE
 
AIR SEA DIR/SP/G HT/PER  
(UTC) (F) (DEG/KT/KT) (MB) (MI) (FT/S)  
BOSTON BUOY NOT AVBL  
BUZZARDS BAY NOT AVBL  
NANTUCKET SOUND NOT AVBL  
MASS BAY-STELLWA NOT AVBL  
ISLE OF SHOALS NOT AVBL  
S OF BLOCK IS NOT AVBL  

 
   
.....................KEY......................
 
 
SKY/WX - SKY CONDITION/PRESENT WEATHER  
TMP - TEMPERATURE IN FAHRENHEIT  
DWPT - DEWPOINT IN FAHRENHEIT  
RH - RELATIVE HUMIDITY IN PERCENT  
WIND - DIRECTION AND SPEED IN MPH  
PRES - MEAN SEA LEVEL PRESSURE IN INCHES OF HG  
WCI - WIND CHILL INDEX  
VSB - VISIBILITY IN MILES  
HX - HEAT INDEX  
TC - TEMPERATURE IN CELSIUS  
VRB - VARIABLE WIND DIRECTION  
N/A - NOT AVAILABLE  
 
 
CLICK HERE TO GO TO PREVIOUS BULLETINS.

The Nexlab MA Page
The Nexlab RI Page
The Nexlab NH Page
The Nexlab CT Page Main Text Page